Back to catalog

STARLINK-34614

AliveCommunicationsVLEO
NORAD 65030·PAYLOAD·🇺🇸 United States

Launched Jul 30, 2025 from Cape Canaveral Space Force Station

Loading…

Next Passes (next 24 hours)

TLE

FreshSource: CelesTrak SupGP

Epoch: Sep 14, 2026, 20:59 UTC

1 65030C 25161R   26257.87479167 -.00072132  00000+0 -21310-2 0  2572
2 65030  53.1579 133.9616 0001184  86.0220   1.2777 15.34429256    13

Track STARLINK-34614 in real time with AllMySat

Download on the App Store